Regional Weather Roundup
Issued by NWS

Home | Current Version | Previous Version | Graphics & Text | Print | Product List | Glossary Off
Versions: 1 2 3 4 5 6 7 8 9 10 11 12 13 14 15 16 17 18 19 20 21 22 23 24 25 26 27 28 29 30 31 32 33 34 35 36 37 38 39 40 41 42 43 44 45 46 47 48 49 50

000
ASUS43 KMPX 310710
RWRMN
WEATHER ROUNDUP FOR MINNESOTA
NATIONAL WEATHER SERVICE TWIN CITIES/CHANHASSEN MN
200 AM CDT MON AUG 31 2015


NOTE: "FAIR" INDICATES FEW OR NO CLOUDS BELOW 12,000 FEET WITH NO
SIGNIFICANT WEATHER AND/OR OBSTRUCTIONS TO VISIBILITY. N/A MEANS
CURRENT SKY AND/OR WEATHER CONDITIONS ARE NOT AVAILABLE.

MNZ060>063-068>070-310800-
   Twin Cities Metro

CITY           SKY/WX    TMP DP  RH WIND       PRES   REMARKS
TWIN CITIES    MOCLDY    68  64  87 S6        29.94R
ST PAUL        CLEAR     64  64 100 SE7       29.94S
CRYSTAL        CLEAR     68  64  87 S8        29.91F
BLAINE         CLEAR     70  66  88 S8        29.92F
LAKEVILLE      CLEAR     63  63 100 CALM      29.95S
EDEN PRAIRIE   CLEAR     67  64  90 S10       29.92F
SOUTH ST PAUL  CLEAR     65  63  94 SE3       29.94S FOG
LAKE ELMO      FAIR      63  61  94 SE5       29.96S FOG
$$
MNZ001>005-007-008-013>017-022>024-027-028-310800-
   Northwest Minnesota

CITY           SKY/WX    TMP DP  RH WIND       PRES   REMARKS
BEMIDJI        CLEAR     67  62  83 S9        29.78F
HALLOCK        PTCLDY    72  68  88 S13       29.64S
ROSEAU         CLEAR     70  64  83 S10       29.68S
WARROAD        CLEAR     72  66  83 S7        29.69F
THIEF RVR FALL CLEAR    N/A N/A N/A S10       29.70S
CROOKSTON      PTCLDY    70  63  78 S16       29.69F
FOSSTON        CLEAR     66  57  72 S9        29.74F
DETROIT LAKES  PTCLDY    68  59  73 S12       29.79S
MOORHEAD       PTCLDY    68  61  77 S18G24    29.72S
PARK RAPIDS      N/A     67  62  84 S13       29.81S
MAHNOMEN       FAIR      69  59  70 S13       29.74F
$$
MNZ006-009>011-018-025>026-310800-
   North Central Minnesota

CITY           SKY/WX    TMP DP  RH WIND       PRES   REMARKS
BAUDETTE       PTCLDY    68  64  87 S7        29.72F
FLAG ISLAND    PTCLDY    70  66  88 S8        29.69S
INTL FALLS     PTCLDY    67  65  93 VRB3      29.77S
WASKISH        PTCLDY    70  63  78 S9        29.75S
BIG FORK       PTCLDY    66  64  94 S8        29.82S
LONGVILLE      PTCLDY    66  64  94 S8        29.84S
GRAND RAPIDS     N/A     64  63  94 S12       29.85S
CRANE LAKE     PTCLDY    66  64  94 S7        29.82F
ORR            PTCLDY    66  63  88 S5        29.81S
COOK           PTCLDY    66  64  94 S3        29.84F
WALKER         FAIR      68  62  80 S9G17     29.80S
$$
MNZ012-019>021-037-310800-
   Northeast Minnesota

CITY           SKY/WX    TMP DP  RH WIND       PRES   REMARKS
DULUTH         CLOUDY    67  65  93 SW14      29.90S
ELY            CLEAR     66  63  88 SW8       29.87S
HIBBING        PTCLDY    63  62  97 SE5       29.86F
EVELETH        FOG       59  59 100 CALM      29.88F VSB 3/4
DULUTH HARBOR  CLEAR     68  64  88 SW8       29.89S
TWO HARBORS    PTCLDY    66  63  88 W3        29.88S
SILVER BAY     PTCLDY    66  64  94 CALM      29.87S
GRAND MARAIS     N/A     54  52  93 CALM      29.87S
G MARAIS ARPRT FOG       61  57  88 CALM      29.92S VSB 1/2
$$
MNZ029>031-032-039>041-046>048-054>057-064-310800-
   West Central Minnesota

CITY           SKY/WX    TMP DP  RH WIND       PRES   REMARKS
FERGUS FALLS   CLEAR     64  61  88 S13       29.78F
WHEATON        CLEAR     61  57  88 SE13      29.79F
MORRIS         CLEAR     64  63  94 SE12      29.81F FOG
ALEXANDRIA     CLEAR     66  62  87 S10       29.86S
ELBOW LAKE     FAIR      64  61  90 S14       29.81S
WADENA         PTCLDY    64  61  88 S7        29.82S
GLENWOOD       PTCLDY    64  63  94 S10       29.87S FOG
APPLETON       CLEAR     64  61  88 SE5       29.83S FOG
BENSON         PTCLDY    64  61  88 S8        29.85S FOG
ORTONVILLE     CLEAR     61  57  88 SE7       29.81S
MADISON        CLEAR     64  61  88 S8        29.83S
WILLMAR        FAIR      66  64  94 SE7       29.89S FOG
$$
MNZ033>034-036-042>043-049>051-058-059-310800-
   Central Minnesota

CITY           SKY/WX    TMP DP  RH WIND       PRES   REMARKS
ST CLOUD       CLOUDY    66  65  96 S9        29.90R
SAUK CENTRE    FAIR      64  63  97 SE6       29.88S FOG
PAYNESVILLE    PTCLDY    65  65  97 SE10      29.89F
AITKIN         PTCLDY    68  63  83 S6        29.86S
PINE RIVER     CLEAR     64  64 100 SE7       29.88S
BRAINERD       PTCLDY    66  65  96 S12       29.87S
STAPLES        PTCLDY    64  63  94 S13       29.84F
LONG PRAIRIE   MOCLDY    63  63 100 SE8       29.87F FOG
LITTLE FALLS   PTCLDY    64  63  94 SE7       29.88S FOG
LITCHFIELD     MOCLDY    66  66 100 S6        29.90S FOG
BUFFALO        PTCLDY    65  63  90 S7        29.92F
MAPLE LAKE     MOCLDY    66  65  97 S5        29.91F FOG
$$
MNZ037-044-045-052-053-310800-
   East Central Minnesota

CITY           SKY/WX    TMP DP  RH WIND       PRES   REMARKS
PRINCETON      PTCLDY    66  64  94 S8        29.91S
MORA           CLOUDY    64  63  94 S7        29.92S
CAMBRIDGE      CLEAR     70  61  73 S6        29.90S
RUSH CITY      PTCLDY    64  63  95 S5        29.92S
MOOSE LAKE     CLOUDY    66  64  94 S7        29.88F
HINCKLEY       CLOUDY    64  64 100 S3        29.92R FOG
CLOQUET        CLOUDY    66  64  94 S9        29.90S
MCGREGOR       PTCLDY    64  63  94 S7        29.88F
$$
MNZ071>073-080-081-089-090-097-098-310800-
   Southwest Minnesota

CITY           SKY/WX    TMP DP  RH WIND       PRES   REMARKS
MONTEVIDEO     PTCLDY    64  64 100 S9        29.86F FOG
GRANITE FALLS  CLOUDY    64  63  98 SE7       29.88S FOG
CANBY          CLEAR     68  62  83 S9G18     29.85S
MARSHALL       PTCLDY    66  61  82 SW17G26   29.87S
REDWOOD FALLS  PTCLDY    65  63  93 S8        29.88F
OLIVIA         PTCLDY    63  59  88 S7        29.89R FOG
PIPESTONE      PTCLDY    66  64  94 S12G17    29.91F FOG
WINDOM         PTCLDY    66  64  94 S10       29.93S
WORTHINGTON    PTCLDY    64  63  94 S14       29.93F
JACKSON        PTCLDY    64  64 100 S10       29.95S FOG
TRACY          PTCLDY    68  66  92 SW20G28   29.89S
SLAYTON        PTCLDY    66  65  99 S14G20    29.92F FOG
$$
MNZ065>067-074>077-082>085-091>093-310800-
   South Central Minnesota

CITY           SKY/WX    TMP DP  RH WIND       PRES   REMARKS
MANKATO        CLEAR     64  61  88 S7        29.94S
NEW ULM        PTCLDY    64  64 100 S9        29.92S FOG
ST JAMES       PTCLDY    66  66 100 S8        29.94S
FAIRMONT       PTCLDY    64  59  82 S8        29.95S
GLENCOE        PTCLDY    65  65  99 S5        29.92S
FARIBAULT      CLEAR     63  63 100 S3        29.96S FOG
OWATONNA       CLEAR     64  61  88 S8        29.96F FOG
WASECA         CLEAR     63  61  94 S6        29.97S FOG
ALBERT LEA     CLEAR     64  63  94 S7        29.98F FOG
$$
MNZ078>079-086>088-094>096-310800-
   Southeast Minnesota

CITY           SKY/WX    TMP DP  RH WIND       PRES   REMARKS
ROCHESTER      CLEAR     60  59  96 S7        30.00S FOG
RED WING       CLEAR     63  61  94 SE5       29.95F
STANTON        CLEAR     65  62  91 CALM      29.94S
DODGE CENTER   PTCLDY    64  63  94 S9        29.98S
WINONA         CLEAR     61  61 100 CALM      29.99S
PRESTON        CLEAR     61  60  95 S7        30.01S FOG
$$
ABBREVIATIONS USED IN REMARKS
   TC - TEMPERATURES IN CELSIUS
  WCI - WIND CHILL INDEX
   HX - HEAT INDEX
  VSB - VISIBILITY
$$



USA.gov is the U.S. government's official web portal to all federal, state and local government web resources and services.